SVJC/LSP METAR and TAF weather

Enter ICAO airport designator
Station Type Date Time Source
SVJC METAR 2020/10/02 10:00 UTC NOAA

SVJC 021000Z NI CHECK TEXT NEW ENDING ADDED KATLYTAA


Station Type Date Time Source
SVJC Decoded METAR 2020/10/02 10:00 UTC NOAA

Paraguana / Josefa, Venezuela (SVJC) 11-47N 070-09W
Oct 02, 2020 - 06:00 AM EDT / 2020.10.02 1000 UTC
ob: SVJC 021000Z NI CHECK TEXT NEW ENDING ADDED KATLYTAA
cycle: 10

Station Type Date Time Source
SVJC TAF 2021/09/23 18:03 UTC NOAA

TAF TAF SVJC 231600Z 2318/2418 09006KT 9999 SCT016 TX32/2316Z TN23/2408Z
BECMG 2318/2322 16006KT 9999 SCT016

Example: see airport list